Voltar ao catálogo

COSMOS 1275 DEB

AtivoPO
NORAD 42111·DEBRIS·🇷🇺 Russia

Lançado Jun 4, 1981 de Plesetsk Cosmodrome

Loading…

Próximas Passagens (próximas 24 horas)

TLE

EnvelhecendoSource: Space-Track

Época: Sep 11, 2026, 06:20 UTC

1 42111U 81053PX  26254.26416308  .00003013  00000-0  10643-2 0  9998
2 42111  82.8059 200.2296 0040139  73.9376 286.6227 14.33989462662114

Acompanhe COSMOS 1275 DEB em tempo real com AllMySat

Download on the App Store